Вернуться в каталог

STARLINK-34708

АктивенСвязьSSO
NORAD 65062·PAYLOAD·🇺🇸 United States

Запущен Jul 31, 2025 с Vandenberg Space Force Base

Loading…

Ближайшие Пролёты (ближайшие 24 часа)

TLE

СвежийSource: CelesTrak SupGP

Эпоха: Sep 14, 2026, 21:38 UTC

1 65062C 25165G   26257.90187500  .02131500  00000+0  72689-1 0  2571
2 65062  97.2846 329.1992 0001495  93.4328  36.8062 15.29343685    12

Отслеживайте STARLINK-34708 в реальном времени с AllMySat

Download on the App Store